www.pogodaiklimat.ru

Погода и климат >> Архив погоды >> Россия >> Коми >> Усть-Щугор


ПОГОДА в Усть-Щугоре

  • Прогноз погоды в Усть-Щугоре
  • Монитор погоды в Усть-Щугоре

АРХИВ ПОГОДЫ в Усть-Щугоре

Время (UTC), дата Ветер
(напр.,м/с)
 
Видим.   Явления Облачность Т
(С)
Тd
(С)
f
(%)
Тe
(С)
Тes
(С)
Комфортность P
(гПа)
Po
(гПа)
Тmin
(С)
Tmax
(С)
R
(мм)
R24
(мм)
S
(см)
03 17.08 ЮЗ 1 20 км 8/4 1000 м
[Sc Ac cast Cc]
+13.7 +10.3 80 +14 +15 1014.8 1006.0 +11.0
06 17.08 ЮЗ 1 20 км 10/10 1110 м
[Cb cap]
+15.0 +10.9 76 +16 +16 1016.1 1007.3
09 17.08 СЗ 1 20 км 9/9 840 м
[Cb cap]
+15.7 +10.1 69 +16 +17 1017.0 1008.3
15 17.08 штиль 0 20 км 9/9 1320 м
[Cb cap]
+15.4 +12.7 84 +15 +15 1018.1 1009.4 +17.8 0.5
03 18.08 Ю 1 500 м туман 10/10
[Frnb]
+9.7 +9.2 97 +9 +9 1022.9 1013.9 +5.6
06 18.08 Ю 1 500 м туман 10/0
[Ac As]
+11.9 +11.4 97 +12 +14 1024.0 1015.1
09 18.08 ЮЗ 1 20 км {туман} 4/4 1000 м
[Cb cap]
+19.1 +10.8 59 +21 +27 комфорт 1023.6 1014.9
15 18.08 СВ 1 20 км 1/1 600 м
[Cb calv]
+18.2 +11.0 63 +20 +20 1024.8 1016.1 +20.3
03 19.08 С 1 500 м туман ясно +9.2 +8.7 97 +8 +10 1028.2 1019.2 +4.5
06 19.08 СВ 1 20 км {туман} ясно +19.7 +11.8 60 +22 +30 комфорт 1027.3 1018.6
09 19.08 ЮЗ 1 20 км {туман} 3/3 1000 м
[Cu med, cong Ci fib]
+22.9 +9.0 41 +24 +31 комфорт 1026.1 1017.5
15 19.08 В 1 20 км 3/3 1000 м
[Cu hum Ci fib]
+21.6 +11.1 51 +23 +24 комфорт 1024.0 1015.4 +24.7
03 20.08 В 3 20 км 6/0
[Cc]
+15.1 +9.7 70 +14 +16 1023.8 1015.1 +11.5
06 20.08 ЮВ 4 20 км 8/0
[Cc]
+19.2 +10.2 56 +20 +24 1023.2 1014.6
09 20.08 ЮВ 5 20 км 8/1 1000 м
[Cu hum Cs]
+21.3 +10.6 50 +23 +26 комфорт 1022.0 1013.4
15 20.08 ЮВ 4 20 км 3/0
[Ac As Ci fib]
+19.8 +9.9 53 +21 +21 комфорт 1021.7 1013.1 +22.1
03 21.08 Ю 2 20 км 10/4 1000 м
[Sc Ac As Cc]
+14.9 +8.4 65 +15 +15 1023.1 1014.3 +10.5
06 21.08 ЮВ 3 20 км 10/4 1000 м
[Sc Ac As Cc]
+19.6 +10.5 56 +21 +23 комфорт 1022.0 1013.4
09 21.08 Ю 3 20 км 9/5
[Sc Ac As]
+19.7 +10.9 57 +21 +23 комфорт 1020.9 1012.3
15 21.08 З 1 20 км 10/10 1470 м
[Sc]
+17.8 +13.7 77 +19 +19 1018.3 1009.6 +22.4
03 22.08 СЗ 1 20 км 10/10 900 м
[Cb cap]
+15.1 +14.1 94 +16 +16 1017.8 1009.4 +13.6 5
06 22.08 СЗ 3 20 км 6/5 1000 м
[Cb cap Ci fib]
+17.3 +12.7 74 +17 +20 1018.1 1009.4
09 22.08 З 2 20 км 8/8 960 м
[Cu med, cong]
+20.2 +11.3 57 +23 +24 комфорт 1017.8 1009.2
15 22.08 ЮВ 1 20 км {ливн. осадки} 10/0
[Ac As]
+17.4 +14.2 81 +18 +18 1015.8 1007.2 +21.4 0.3
03 23.08 В 2 4000 м слаб. ливневой дождь 10/6 600 м
[Cb cap Ac As]
+13.4 +11.7 89 +13 +13 1006.5 997.8 +12.1 0.3
06 23.08 В 5
{10}
4000 м слаб. ливневой дождь 10/10 1020 м
[Cb cap]
+13.1 +12.0 93 +11 +11 1001.5 992.9
09 23.08 СВ 1
{10}
4000 м слаб. ливневой дождь 10/10 270 м
[Cb cap]
+14.0 +13.1 94 +14 +14 999.0 990.4
15 23.08 СЗ 6-11
{11}
2000 м ливневой дождь 10/10 420 м
[Cb cap]
+12.4 +11.4 94 +10 +10 1001.5 992.8 +14.8 13

 

Местоположение метеостанции Усть-Щугор (Коми, Россия): широта 64.27 долгота 57.62 высота над уровнем моря 75 м.

В архиве по умолчанию представлена погода в Усть-Щугоре за последнюю неделю. Архивные данные за месяц целиком и за предыдущие месяцы, начиная с января 2011 года, Вы можете получить, выбрав интересующий диапазон дат из раскрывающегося списка и нажав кнопку "Ввод!".


*Определитесь, кто Вы:
робот инопланетянин человек

Внимание! Время в таблицах - всемирное. Для получения местного времени необходимо прибавить поправку, которая равна 3 ч.

Смотрите также архив погоды в соседних городах и на ближайших метеорологических станциях:

Погода в Вуктыле (Коми, Россия) (51 км)
Погода в Печоре (Коми, Россия) (98 км)
Погода в Ираеле (Коми, Россия) (110 км)
Погода в Саранпауле (Ханты-Мансийский АО, Россия) (157 км)
Погода в Приполярном (Ханты-Мансийский АО, Россия) (160 км)
Погода в Троицко-Печорском (Коми, Россия) (188 км)
Погода в Усть-Усе (Коми, Россия) (192 км)
Погода в Ижме (Коми, Россия) (194 км)
Погода в Кедва-Воме (Коми, Россия) (196 км)
Погода в Усинске (Коми, Россия) (196 км)

Пояснения к столбцам:

Ветер - указаны скорость ветра в м/с - средняя за 10 мин, порывы в срок и между сроками (в фигурных скобках) и направление, откуда дует ветер: С - северный, СВ - северо-восточный, В - восточный, ЮВ - юго-восточный, Ю - южный, ЮЗ - юго-западный, З - западный, СЗ - северо-западный.
Видимость - горизонтальная дальность видимости в метрах или километрах. При видимости от 1 до 10 км при отсутствии осадков обычно наблюдается дымка, при ухудшении видимости до 1 км и менее - туман. В сухую погоду видимость может ухудшаться дымом, пылью или мглою.
Явления - указаны атмосферные явления, наблюдавшиеся в срок или в последний час перед сроком; фигурными скобками обозначены явления, наблюдавшиеся между сроками (за 1-3 часа до срока); квадратными скобками обозначены град или гололедные отложения с указанием их диаметра в мм.
Облачность - указаны через наклонную черту общая и нижняя облачность в баллах и высота нижней границы облаков в метрах; квадратными скобками обозначены формы облаков: Ci - перистые, Cs - перисто-слоистые, Cc - перисто-кучевые, Ac - высококучевые, As - высокослоистые, Sc - слоисто-кучевые, Ns - слоисто-дождевые, Cu - кучевые, Cb - кучево-дождевые. Подробнее классификацию облаков см. в Атласе облаков (PDF).
T - Температура воздуха - температура, измеренная на высоте 2 м над землей.
Td - Температура точки росы - температура, при понижении до которой содержащийся в воздухе водяной пар достигнет насыщения.
f - Относительная влажность воздуха - влажноcть воздуха, измеренная на высоте 2 м над землей.
Te - Эффективная температура - температура, которую ощущает одетый по сезону человек в тени. Характеристика душности погоды. При расчете учитывается влияние влажности воздуха и скорости ветра на теплоощущения человека.
Tes - Эффективная температура на солнце - температура, которую ощущает человек, с поправкой на солнечный нагрев. Характеристика знойности погоды. Зависит от высоты солнца над горизонтом, облачности и скорости ветра. Ночью, в пасмурную погоду, а также при ветре 12 м/с и более поправка равна нулю.
P - Атмосферное давление - приведенное к уровню моря атмосферное давление.
Po - Атмосферное давление - измеренное на уровне метеостанции атмосферное давление.
Tmin - Минимальная температура - минимум температуры воздуха на высоте 2 м над землей.
Tmax - Максимальная температура - максимум температуры воздуха на высоте 2 м над землей.
R - Количество осадков - Количество выпавших осадков за период времени, мм. При наведении курсора мыши на число - период времени, за который выпало указанное количество осадков.
R24 - Количество осадков - Количество выпавших осадков за 24 часа, мм.
S - Снежный покров - Высота снежного покрова, см. При наведении курсора мыши на число - состояние снежного покрова и степень покрытия местности в баллах.